Hlavní strana
METAR-TAF:

METAR-TAF

Letiště :

Edgar County Airport

Paris, Illinois, Spojené státy americké

zeměpisná šířka: 39-42-01N, zeměpisná délka: 087-40-11W, výška: 199 m

Aktuální stav počasí

Zpráva byla vytvořena před 24 minutami, v 06:15 UTC
Bezvětří
Teplota 6°C
Vlhkost vzduchu 70%
Tlak 1014 hPa
Viditelnost: 16.1 km
Jasno

METAR: KPRG 210615Z AUTO 00000KT 10SM CLR 06/01 A2993 RMK AO2 T00550010

Čas: 01:39 (06:39 UTC)


TAF: chybějící

Stav a předpovědi počasí z více než 4 000 letišť (zprávy METAR a TAF).

Červené a žluté tečky na mapě představují dostupné meteorologické stanice.

Když kurzor umístíte na tečku, zobrazí se název stanice.

Pak kliknutím zobrazíte stav a předpověď počasí.

Chcete-li změnit mapu, kliknutím na zelené tlačítko se znaménkem +mapu přiblížíte, kliknutím na zelené tlačítko se znaménkem – mapu oddálíte a kliknutím na zelené šipky přejdete na sousední mapy.


METAR-TAF: